THA973 LSZH-VTBS

Flight info

Callsign THA973
Flight time N/A
Altitude 33000
Route DEGES Z2 UMVEG DCT DIMLO DCT INVED DCT SOKRU DCT DINRO DCT UDROS UM859 KARDE UL851 TBN UM11 REBLO M11 MATAL/N0487F350 M11 LUSAL N701 LARGI B701 TUGTA A909 LEMOD N644 DI A466 SULOM M890 LKN R460 BBN/N0497F370 R460 CEA L507 IGONI DCT WILLA WILLA1C
Aircraft B77W/H-SDE1E2E3FGHIJ2J3J4J5M1RWXY/LB1D1

Departure

Time 2026-05-05 22:58
Airport Zürich Airport (LSZH)

Arrival

Time N/A
Airport Suvarnabhumi Airport (VTBS)
Time Latitude Longitude Altitude Speed Heading
2026-05-05 22:27 47.46133 8.55097 1390 ft 0 kts 65°
2026-05-05 22:47 47.46133 8.55096 1390 ft 0 kts 65°
2026-05-05 22:47 47.46131 8.55091 1390 ft 2 kts 64°
2026-05-05 22:48 47.46123 8.55072 1390 ft 2 kts 45°
2026-05-05 22:48 47.46111 8.55059 1390 ft 2 kts 28°
2026-05-05 22:48 47.46098 8.55050 1389 ft 2 kts 12°
2026-05-05 22:48 47.46083 8.55048 1389 ft 2 kts 356°
2026-05-05 22:49 47.46068 8.55052 1389 ft 2 kts 340°
2026-05-05 22:49 47.46061 8.55056 1389 ft 1 kts 334°
2026-05-05 22:49 47.46061 8.55057 1389 ft 0 kts 334°
2026-05-05 22:51 47.46063 8.55055 1389 ft 1 kts 334°
2026-05-05 22:51 47.46076 8.55046 1389 ft 3 kts 335°
2026-05-05 22:51 47.46101 8.55029 1389 ft 4 kts 336°
2026-05-05 22:52 47.46138 8.55004 1389 ft 6 kts 336°
2026-05-05 22:52 47.46187 8.54970 1389 ft 8 kts 335°
2026-05-05 22:52 47.46247 8.54929 1388 ft 10 kts 335°
2026-05-05 22:52 47.46319 8.54880 1387 ft 12 kts 336°
2026-05-05 22:53 47.46402 8.54822 1386 ft 14 kts 335°
2026-05-05 22:53 47.46492 8.54759 1386 ft 14 kts 335°
2026-05-05 22:53 47.46588 8.54694 1386 ft 15 kts 335°
2026-05-05 22:53 47.46686 8.54627 1386 ft 15 kts 335°
2026-05-05 22:54 47.46777 8.54532 1386 ft 16 kts 308°
2026-05-05 22:54 47.46848 8.54395 1385 ft 17 kts 320°
2026-05-05 22:54 47.46956 8.54311 1385 ft 17 kts 335°
2026-05-05 22:54 47.47068 8.54233 1384 ft 18 kts 335°
2026-05-05 22:55 47.47186 8.54152 1383 ft 18 kts 335°
2026-05-05 22:55 47.47302 8.54073 1386 ft 17 kts 335°
2026-05-05 22:55 47.47404 8.54002 1386 ft 15 kts 335°
2026-05-05 22:55 47.47504 8.53933 1388 ft 15 kts 336°
2026-05-05 22:56 47.47601 8.53867 1391 ft 14 kts 336°
2026-05-05 22:56 47.47684 8.53808 1393 ft 7 kts 330°
2026-05-05 22:56 47.47705 8.53759 1394 ft 4 kts 276°
2026-05-05 22:56 47.47696 8.53712 1394 ft 5 kts 239°
2026-05-05 22:57 47.47664 8.53668 1393 ft 7 kts 204°
2026-05-05 22:57 47.47609 8.53638 1393 ft 8 kts 201°
2026-05-05 22:57 47.47549 8.53616 1392 ft 12 kts 172°
2026-05-05 22:57 47.47345 8.53749 1388 ft 62 kts 155°
2026-05-05 22:58 47.46742 8.54163 1385 ft 126 kts 155°
2026-05-05 22:58 47.45771 8.54832 1391 ft 179 kts 155°
2026-05-05 22:58 47.44607 8.55649 1925 ft 186 kts 156°
2026-05-05 22:58 47.43444 8.56569 2588 ft 196 kts 140°
2026-05-05 22:59 47.42596 8.58134 3336 ft 201 kts 118°
2026-05-05 22:59 47.42189 8.60108 4067 ft 208 kts 97°
2026-05-05 22:59 47.42347 8.62210 4747 ft 211 kts 72°
2026-05-05 22:59 47.42896 8.64204 5277 ft 213 kts 69°
2026-05-05 23:00 47.44092 8.68312 6096 ft 227 kts 68°
2026-05-05 23:00 47.44746 8.70558 6307 ft 246 kts 69°
2026-05-05 23:00 47.45436 8.72926 6596 ft 262 kts 69°
2026-05-05 23:01 47.46178 8.75484 6920 ft 280 kts 71°
2026-05-05 23:01 47.46581 8.78335 7463 ft 285 kts 88°
2026-05-05 23:01 47.46698 8.81227 8232 ft 284 kts 92°
2026-05-05 23:01 47.46480 8.84114 8886 ft 284 kts 104°
2026-05-05 23:02 47.46061 8.86957 9613 ft 284 kts 105°
2026-05-05 23:02 47.45631 8.89791 10266 ft 288 kts 105°
2026-05-05 23:02 47.45195 8.92769 10589 ft 305 kts 104°
2026-05-05 23:02 47.44748 8.95910 10933 ft 321 kts 104°
2026-05-05 23:03 47.44282 8.99174 11281 ft 337 kts 104°
2026-05-05 23:03 47.43786 9.02636 11628 ft 353 kts 104°
2026-05-05 23:03 47.43264 9.06261 12001 ft 369 kts 104°
2026-05-05 23:03 47.42722 9.10010 12496 ft 381 kts 104°
2026-05-05 23:04 47.42167 9.13848 13168 ft 387 kts 104°
2026-05-05 23:04 47.41601 9.17752 13955 ft 390 kts 104°
2026-05-05 23:04 47.41038 9.21678 14674 ft 395 kts 102°
2026-05-05 23:04 47.40791 9.25723 15305 ft 403 kts 91°
2026-05-05 23:05 47.41071 9.29891 15896 ft 413 kts 80°
2026-05-05 23:05 47.41899 9.33942 16539 ft 420 kts 70°
2026-05-05 23:05 47.42938 9.37975 17186 ft 424 kts 72°
2026-05-05 23:05 47.43868 9.42098 17891 ft 427 kts 74°
2026-05-05 23:06 47.44730 9.46266 18622 ft 431 kts 76°
2026-05-05 23:06 47.45525 9.50594 19243 ft 436 kts 77°
2026-05-05 23:06 47.46273 9.54942 19839 ft 440 kts 78°
2026-05-05 23:06 47.46865 9.59346 20418 ft 443 kts 86°
2026-05-05 23:07 47.46965 9.63852 20985 ft 444 kts 95°
2026-05-05 23:07 47.46771 9.68413 21549 ft 448 kts 98°
2026-05-05 23:07 47.46534 9.73032 22107 ft 452 kts 98°
2026-05-05 23:07 47.46289 9.77661 22647 ft 456 kts 98°
2026-05-05 23:08 47.46037 9.82337 23226 ft 460 kts 98°
2026-05-05 23:08 47.45780 9.87024 23790 ft 463 kts 98°
2026-05-05 23:08 47.45516 9.91771 24272 ft 468 kts 99°
2026-05-05 23:08 47.45244 9.96615 24714 ft 473 kts 99°
2026-05-05 23:09 47.44968 10.01473 25130 ft 479 kts 99°
2026-05-05 23:09 47.44688 10.06368 25650 ft 482 kts 99°
2026-05-05 23:09 47.44406 10.11253 26145 ft 485 kts 99°
2026-05-05 23:09 47.44115 10.16232 26536 ft 490 kts 99°
2026-05-05 23:10 47.43608 10.21231 26921 ft 491 kts 105°
2026-05-05 23:10 47.42954 10.26175 27329 ft 495 kts 106°
2026-05-05 23:10 47.42281 10.31170 27802 ft 497 kts 106°
2026-05-05 23:10 47.41603 10.36177 28247 ft 501 kts 106°
2026-05-05 23:11 47.40924 10.41181 28651 ft 504 kts 106°
2026-05-05 23:11 47.40225 10.46322 29059 ft 508 kts 106°
2026-05-05 23:11 47.39530 10.51401 29515 ft 510 kts 106°
2026-05-05 23:11 47.38823 10.56535 30047 ft 510 kts 106°
2026-05-05 23:12 47.38123 10.61603 30574 ft 510 kts 106°
2026-05-05 23:12 47.37411 10.66742 31074 ft 509 kts 107°
2026-05-05 23:12 47.36693 10.71906 31569 ft 508 kts 107°
2026-05-05 23:12 47.35979 10.77018 32005 ft 508 kts 107°
2026-05-05 23:13 47.35255 10.82180 32349 ft 509 kts 107°
2026-05-05 23:13 47.34536 10.87297 32771 ft 508 kts 107°
2026-05-05 23:13 47.33818 10.92383 32991 ft 510 kts 108°
2026-05-05 23:13 47.33091 10.97523 32995 ft 510 kts 107°
2026-05-05 23:14 47.31646 11.07681 32978 ft 508 kts 107°
2026-05-05 23:14 47.30184 11.17888 32978 ft 509 kts 108°
2026-05-05 23:15 47.28721 11.28038 32935 ft 510 kts 107°
2026-05-05 23:15 47.27242 11.38227 32932 ft 510 kts 107°
2026-05-05 23:16 47.25756 11.48398 32929 ft 510 kts 107°
2026-05-05 23:16 47.24464 11.58678 32990 ft 513 kts 103°
2026-05-05 23:17 47.23380 11.69014 32991 ft 515 kts 104°
2026-05-05 23:17 47.22263 11.79420 32957 ft 512 kts 104°
2026-05-05 23:18 47.21134 11.89743 32962 ft 515 kts 104°
2026-05-05 23:18 47.20110 12.00152 32959 ft 516 kts 103°
2026-05-05 23:19 47.19109 12.10590 32971 ft 517 kts 103°
2026-05-05 23:19 47.18100 12.20940 32988 ft 515 kts 102°
2026-05-05 23:20 47.17064 12.31420 32990 ft 516 kts 102°
2026-05-05 23:20 47.16025 12.41810 33002 ft 515 kts 103°
2026-05-05 23:21 47.14983 12.52133 32995 ft 515 kts 102°
2026-05-05 23:21 47.13919 12.62557 32995 ft 517 kts 102°
2026-05-05 23:22 47.12852 12.72921 32969 ft 514 kts 103°
2026-05-05 23:22 47.11776 12.83274 32942 ft 513 kts 103°
2026-05-05 23:23 47.10693 12.93589 32944 ft 514 kts 103°
2026-05-05 23:23 47.09600 13.03918 32949 ft 513 kts 103°
2026-05-05 23:24 47.08492 13.14296 32962 ft 513 kts 103°
2026-05-05 23:24 47.07382 13.24595 32968 ft 512 kts 103°
2026-05-05 23:25 47.06261 13.34900 32971 ft 513 kts 103°
2026-05-05 23:25 47.05128 13.45237 32962 ft 513 kts 102°
2026-05-05 23:26 47.03994 13.55499 32960 ft 511 kts 103°
2026-05-05 23:26 47.02848 13.65770 32965 ft 511 kts 103°
2026-05-05 23:27 47.01691 13.76051 32953 ft 511 kts 103°
2026-05-05 23:27 47.00524 13.86339 32937 ft 512 kts 103°
2026-05-05 23:28 46.99351 13.96604 32939 ft 511 kts 103°
2026-05-05 23:28 46.98172 14.06825 32953 ft 509 kts 103°
2026-05-05 23:29 46.96983 14.17055 32955 ft 509 kts 103°
2026-05-05 23:29 46.95789 14.27238 32950 ft 510 kts 103°
2026-05-05 23:30 46.94572 14.37535 32941 ft 513 kts 103°
2026-05-05 23:30 46.93363 14.47696 32934 ft 512 kts 102°
2026-05-05 23:31 46.92131 14.57960 32921 ft 512 kts 102°
2026-05-05 23:31 46.90892 14.68203 32919 ft 514 kts 103°
2026-05-05 23:32 46.89645 14.78435 32924 ft 513 kts 103°
2026-05-05 23:32 46.88392 14.88634 32901 ft 513 kts 103°
2026-05-05 23:33 46.87116 14.98934 32901 ft 516 kts 103°
2026-05-05 23:33 46.85831 15.09234 32896 ft 515 kts 102°
2026-05-05 23:34 46.84544 15.19469 32911 ft 514 kts 102°
2026-05-05 23:34 46.83247 15.29714 32910 ft 512 kts 102°
2026-05-05 23:35 46.81950 15.39875 32907 ft 512 kts 102°
2026-05-05 23:35 46.80642 15.50049 32903 ft 513 kts 102°
2026-05-05 23:36 46.79316 15.60290 32901 ft 512 kts 102°
2026-05-05 23:36 46.77988 15.70468 32889 ft 511 kts 103°
2026-05-05 23:37 46.76666 15.80530 32886 ft 508 kts 102°
2026-05-05 23:37 46.75326 15.90649 32877 ft 509 kts 102°
2026-05-05 23:38 46.73976 16.00776 32876 ft 509 kts 102°
2026-05-05 23:38 46.72615 16.10909 32885 ft 510 kts 102°
2026-05-05 23:39 46.71246 16.21032 32883 ft 510 kts 102°
2026-05-05 23:39 46.69871 16.31130 32900 ft 509 kts 102°
2026-05-05 23:40 46.68496 16.41162 32901 ft 508 kts 102°
2026-05-05 23:40 46.67265 16.51319 32897 ft 508 kts 99°
2026-05-05 23:41 46.66126 16.61404 32890 ft 509 kts 99°
2026-05-05 23:41 46.64961 16.71567 32882 ft 508 kts 100°
2026-05-05 23:42 46.63775 16.81776 32892 ft 516 kts 100°
2026-05-05 23:42 46.62567 16.92062 32895 ft 513 kts 101°
2026-05-05 23:43 46.61368 17.02185 32898 ft 505 kts 100°
2026-05-05 23:43 46.60164 17.12261 32898 ft 506 kts 100°
2026-05-05 23:44 46.58951 17.22326 32898 ft 506 kts 100°
2026-05-05 23:44 46.57738 17.32313 32901 ft 505 kts 100°
2026-05-05 23:45 46.56513 17.42322 32901 ft 504 kts 100°
2026-05-05 23:45 46.55271 17.52395 32910 ft 504 kts 100°
2026-05-05 23:46 46.54031 17.62374 32912 ft 503 kts 100°
2026-05-05 23:46 46.52785 17.72325 32905 ft 502 kts 101°
2026-05-05 23:47 46.51528 17.82291 32921 ft 504 kts 101°
2026-05-05 23:47 46.50264 17.92243 32938 ft 502 kts 101°
2026-05-05 23:48 46.48993 18.02174 32930 ft 501 kts 101°
2026-05-05 23:48 46.47703 18.12182 32931 ft 502 kts 101°
2026-05-05 23:49 46.46417 18.22094 32925 ft 500 kts 101°
2026-05-05 23:49 46.45120 18.32011 32930 ft 501 kts 101°
2026-05-05 23:50 46.43815 18.41921 32938 ft 500 kts 101°
2026-05-05 23:50 46.42508 18.51776 32934 ft 498 kts 101°
2026-05-05 23:51 46.41191 18.61642 32940 ft 499 kts 101°
2026-05-05 23:51 46.39861 18.71537 32936 ft 497 kts 101°
2026-05-05 23:52 46.38525 18.81399 32938 ft 497 kts 101°
2026-05-05 23:52 46.37194 18.91164 32936 ft 496 kts 101°
2026-05-05 23:53 46.35853 19.00939 32936 ft 495 kts 101°
2026-05-05 23:53 46.34504 19.10707 32945 ft 494 kts 101°
2026-05-05 23:54 46.33152 19.20428 32941 ft 494 kts 101°
2026-05-05 23:54 46.31785 19.30196 32946 ft 494 kts 101°
2026-05-05 23:55 46.30421 19.39873 32950 ft 495 kts 101°
2026-05-05 23:55 46.29037 19.49635 32949 ft 493 kts 101°
2026-05-05 23:56 46.27656 19.59308 32946 ft 491 kts 101°
2026-05-05 23:56 46.26275 19.68926 32950 ft 491 kts 102°
2026-05-05 23:57 46.24877 19.78598 32945 ft 490 kts 102°
2026-05-05 23:57 46.23476 19.88227 32951 ft 488 kts 102°
2026-05-05 23:58 46.22079 19.97773 32954 ft 491 kts 102°
2026-05-05 23:58 46.20662 20.07389 32955 ft 489 kts 102°
2026-05-05 23:59 46.19241 20.16976 32954 ft 490 kts 102°
2026-05-05 23:59 46.17813 20.26557 32946 ft 488 kts 102°
2026-05-06 00:00 46.16375 20.36138 32950 ft 488 kts 102°
2026-05-06 00:00 46.14620 20.45545 32954 ft 489 kts 107°
2026-05-06 00:01 46.12643 20.54936 32957 ft 488 kts 107°
2026-05-06 00:01 46.10668 20.64251 32967 ft 487 kts 106°
2026-05-06 00:02 46.08680 20.73586 32966 ft 487 kts 107°
2026-05-06 00:02 46.06689 20.82882 32981 ft 488 kts 107°
2026-05-06 00:03 46.04694 20.92156 32973 ft 487 kts 107°
2026-05-06 00:03 46.02681 21.01472 32972 ft 485 kts 107°
2026-05-06 00:04 46.00668 21.10744 32976 ft 488 kts 107°
2026-05-06 00:04 45.98645 21.20018 32977 ft 487 kts 107°
2026-05-06 00:05 45.95578 21.34003 32982 ft 490 kts 107°
2026-05-06 00:06 45.93527 21.43304 32987 ft 489 kts 107°
2026-05-06 00:06 45.91465 21.52617 32977 ft 489 kts 107°
2026-05-06 00:07 45.89402 21.61889 32967 ft 489 kts 106°
2026-05-06 00:07 45.87324 21.71187 32967 ft 488 kts 107°
2026-05-06 00:08 45.85248 21.80439 32964 ft 489 kts 107°
2026-05-06 00:08 45.83155 21.89728 32972 ft 492 kts 107°
2026-05-06 00:09 45.81051 21.99021 32966 ft 492 kts 107°
2026-05-06 00:09 45.78933 22.08334 32969 ft 493 kts 107°
2026-05-06 00:10 45.76808 22.17640 32971 ft 492 kts 107°
2026-05-06 00:10 45.74675 22.26942 32981 ft 490 kts 107°
2026-05-06 00:11 45.72529 22.36259 32998 ft 490 kts 107°
2026-05-06 00:11 45.70393 22.45494 33023 ft 490 kts 107°
2026-05-06 00:12 45.68257 22.54690 33037 ft 489 kts 107°
2026-05-06 00:12 45.66105 22.63916 33027 ft 489 kts 107°
2026-05-06 00:13 45.63929 22.73207 33017 ft 490 kts 107°
2026-05-06 00:13 45.61754 22.82449 33008 ft 489 kts 107°
2026-05-06 00:14 45.59589 22.91616 33002 ft 490 kts 107°
2026-05-06 00:14 45.57413 23.00789 32997 ft 488 kts 107°
2026-05-06 00:15 45.55221 23.09989 33015 ft 488 kts 107°
2026-05-06 00:15 45.53034 23.19133 33048 ft 489 kts 107°
2026-05-06 00:16 45.50829 23.28314 33075 ft 489 kts 107°
2026-05-06 00:16 45.48632 23.37424 33074 ft 489 kts 107°
2026-05-06 00:17 45.46418 23.46568 33083 ft 489 kts 107°
2026-05-06 00:17 45.44188 23.55737 33084 ft 488 kts 107°
2026-05-06 00:18 45.41962 23.64858 33088 ft 489 kts 107°
2026-05-06 00:18 45.39728 23.73969 33092 ft 489 kts 107°
2026-05-06 00:19 45.37483 23.83094 33094 ft 489 kts 107°
2026-05-06 00:19 45.35230 23.92212 33088 ft 489 kts 108°
2026-05-06 00:20 45.32981 24.01275 33083 ft 488 kts 107°
2026-05-06 00:20 45.30712 24.10384 33077 ft 490 kts 107°
2026-05-06 00:21 45.28442 24.19464 33057 ft 489 kts 107°